Regional Weather Roundup
Issued by NWS

Home | Current Version | Previous Version | Graphics & Text | Print | Product List | Glossary On
Versions: 1 2 3 4 5 6 7 8 9 10 11 12 13 14 15 16 17 18 19 20 21 22 23 24 25 26 27 28
000
ASUS45 KCYS 250810
RWRWY

WYOMING REGIONAL WEATHER ROUNDUP
NATIONAL WEATHER SERVICE CHEYENNE WY
200 AM MDT MON JUL 25 2016

NOTE:  "FAIR" INDICATES FEW OR NO CLOUDS BELOW 12,000 FEET
WITH NO SIGNIFICANT WEATHER AND/OR OBSTRUCTIONS TO VISIBILITY.

WYZ001-250900-
YELLOWSTONE NATIONAL PARK

CITY           SKY/WX    TMP DP  RH WIND       PRES   REMARKS
LK YELLOWSTONE   N/A     41  31  67 CALM      30.37F
W YELLOWSTONE  NOT AVBL

$$
WYZ002>013-054>058-071-098>099-250900-
NORTHERN WYOMING

CITY           SKY/WX    TMP DP  RH WIND       PRES   REMARKS
JACKSON        FAIR      46  36  66 N7        30.26S
CODY           FAIR      66  36  32 SW9       30.13F
GREYBULL       FAIR      64  40  41 W3        30.04R
WORLAND        FAIR      62  29  28 S3        30.06R
SHERIDAN       FAIR      62  44  51 S3        30.06S
BUFFALO        FAIR      68  39  34 NW3       30.13F
GILLETTE       FAIR      69  51  52 S13       30.10S
HULETT         FAIR      73  50  43 S17G26    30.12S
NEWCASTLE      FAIR      70  46  43 SE15G24   30.17S

$$
WYZ014>020-022>026-101>103-250900-
CENTRAL WYOMING

CITY           SKY/WX    TMP DP  RH WIND       PRES   REMARKS
BIG PINEY      FAIR      47  24  40 N6        30.30S
PINEDALE       FAIR      45  32  61 NW5       30.31S
DUBOIS         FAIR      54  25  32 W12       30.29F HAZE
LANDER         FAIR      62  34  35 CALM      30.16F
RIVERTON       FAIR      64  40  41 NW9       30.15S
CASPER         FAIR      54  47  77 N3        30.16S
DOUGLAS          N/A    N/A N/A N/A MISG      30.16S

$$
WYZ021-027>030-104>119-250900-
SOUTHERN WYOMING

CITY           SKY/WX    TMP DP  RH WIND       PRES   REMARKS
EVANSTON       FAIR      63  22  20 S8        30.30S
KEMMERER         N/A     52  28  40 N13       30.30F
FORT BRIDGER   FAIR      63  16  16 W8        30.32R
ROCK SPRINGS   FAIR      63  12  13 SW7       30.26S
DIXON          FAIR      55  32  42 NE5       30.28R
RAWLINS        FAIR      51  38  60 CALM      30.25F
SARATOGA       FAIR      59  32  36 SE12G18   30.29R
LARAMIE        FAIR      56  52  86 SE22G30   30.30F
CHEYENNE       FAIR      58  54  86 S17       30.28F
TORRINGTON     FAIR      59  54  83 E7        30.17F
PINE BLUFFS    FAIR      54  54 100 S5        30.24F

$$




USA.gov is the U.S. government's official web portal to all federal, state and local government web resources and services.